Weather in Gangneung

South Korea     37°45′55″N   128°54′36″E
temp.,
°C
wind,
m/s
gust,
m/s
humid.,
%
clouds,
%
prec.,
mm/h
press.,
hPa
HPBL,
m
2 december, thu
thu200:00−1sw57440 0.0 1019465
03:00−1sw57450 0.0 1019440
06:00−1sw46420 0.0 1018336
09:00+1sw46390 0.0 1018417
12:00+5wsw69400 0.0 10171040
15:00+7wsw712470 0.0 10141178
18:00+6wsw814606 0.0 10151324
21:00+6wsw715625 0.0 10141405
3 december, fri
fri300:00+7wsw81662100 0.0 10131477
03:00+7sw8155972 0.0 10121500
06:00+5wnw476769 0.1 1013943
09:00+5wnw815430 0.1 10161530
12:00+4wnw710320 0.0 10161360
15:00+4w810360 0.0 10161594
18:00+2wsw59370 0.0 10191015
21:00+1wsw68440 0.0 1020653
4 december, sat
sat400:00+1wsw58440 0.0 1020596
03:00+2w710470 0.0 1021913
06:00+2wnw710480 0.0 1022976
09:00+4wnw574356 0.0 1023808
12:00+6nnw34311 0.0 10241313
15:00+6nne32430 0.0 1024878
18:00+5nnw11484 0.0 1027877
21:00+4sw21505 0.0 1028421
5 december, sun
sun500:00+4sw21514 0.0 1029346
03:00+4sw32555 0.0 1029238
06:00+3sw32592 0.0 1030214
09:00+5ssw23531 0.0 1030241
12:00+9se23440 0.0 1029872
15:00+10ese22380 0.0 1027901
18:00+8w21480 0.0 1027284
21:00+7sw32540 0.0 1027131
6 december, mon
mon600:00+6sw22540 0.0 1026135
03:00+6sw32550 0.0 1025134
06:00+6sw32560 0.0 1025136
09:00+7sw224925 0.0 1025152
12:00+10ne113792 0.0 1024342
15:00+10e224448 0.0 1023353
18:00+9s1148100 0.0 1023255
21:00+8wsw3253100 0.0 1024139